Terminal Aerodrome Forecast
Issued by NWS

Home | Current Version | Previous Version | Text Only | Print | Product List | Glossary Off
Versions: 1 2 3 4 5 6 7 8 9 10 11 12 13 14 15

594
FTUS43 KMPX 101002 AAA
TAFRNH
TAF AMD
KRNH 101002Z 1010/1106 33006KT P6SM FEW150
     FM102200 33004KT P6SM SCT100 BKN200=

USA.gov is the U.S. government's official web portal to all federal, state and local government web resources and services.